Torna al catalogo

STARLINK-35945

AttivoComunicazioniVLEO
NORAD 66925·PAYLOAD·🇺🇸 United States

Lanciato Dec 7, 2025 da Vandenberg Space Force Base

Loading…

Prossimi Passaggi (prossime 24 ore)

TLE

AggiornatoSource: CelesTrak SupGP

Epoca: Sep 15, 2026, 02:48 UTC

1 66925C 25286A   26258.11715278 -.00047352  00000+0 -13991-2 0  2581
2 66925  53.1589 195.0940 0001402  79.2816  82.0448 15.34413219    19

Traccia STARLINK-35945 in tempo reale con AllMySat

Download on the App Store